CW8078 Weather Reports


time (UTC)temp
F
wind
direction
speed
knots
gust
knots
rain 1hr
in
rain 24hr
in
rain mn
in
humidity
%
barometer
mb
20260505011303 75 198 0.0 0.9 0.00 0.00 0.00 58 1000.0
20260505010303 75 198 0.0 0.9 0.00 0.00 0.00 56 1000.0
20260505003803 77 145 0.0 0.0 0.00 0.00 0.00 54 999.8
20260505003303 77 128 0.0 0.9 0.00 0.00 0.00 53 999.7
20260505001803 78 223 0.0 0.0 0.00 0.00 0.00 52 999.8
20260505001303 78 221 0.0 0.0 0.00 0.00 0.00 52 999.8
20260504234803 79 218 0.0 0.9 0.00 0.00 0.00 50 999.5
20260504234303 79 182 0.0 0.0 0.00 0.00 0.00 50 999.5
20260504233804 79 172 0.0 2.6 0.00 0.00 0.00 49 999.5
20260504233303 80 189 0.0 4.3 0.00 0.00 0.00 50 999.5
20260504231803 80 211 0.0 1.7 0.00 0.00 0.00 49 999.5
20260504231303 80 185 0.0 0.0 0.00 0.00 0.00 49 999.6
20260504230303 80 195 0.0 5.2 0.00 0.00 0.00 48 999.5
20260504223803 81 184 0.9 5.2 0.00 0.00 0.00 47 999.5
20260504223303 81 196 0.0 4.3 0.00 0.00 0.00 47 999.5
20260504221803 81 215 0.0 0.0 0.00 0.00 0.00 49 999.5
20260504221303 81 196 0.0 0.0 0.00 0.00 0.00 48 999.5
20260504220804 81 188 0.0 0.0 0.00 0.00 0.00 48 999.6
20260504214803 81 225 0.0 2.6 0.00 0.00 0.00 48 999.6
20260504214303 81 200 0.9 8.7 0.00 0.00 0.00 47 999.7
20260504213803 81 181 1.7 7.0 0.00 0.00 0.00 48 999.6
20260504213303 81 193 0.9 7.0 0.00 0.00 0.00 48 999.7
20260504211804 81 203 0.9 7.0 0.00 0.00 0.00 48 999.8
20260504210804 81 209 0.0 2.6 0.00 0.00 0.00 48 999.8
20260504210304 81 203 0.0 4.3 0.00 0.00 0.00 49 999.9
20260504204803 80 191 0.0 5.2 0.00 0.00 0.00 48 1000.0
20260504203804 80 218 0.0 0.0 0.00 0.00 0.00 49 1000.0
20260504201803 81 194 0.9 4.3 0.00 0.00 0.00 47 1000.2
20260504201303 81 214 0.9 4.3 0.00 0.00 0.00 48 1000.2
20260504200803 81 208 0.0 0.9 0.00 0.00 0.00 48 1000.3
20260504200303 81 225 0.0 4.3 0.00 0.00 0.00 49 1000.3
20260504194803 81 200 0.9 5.2 0.00 0.00 0.00 47 1000.5
20260504194303 81 180 0.0 0.9 0.00 0.00 0.00 47 1000.6
20260504193804 81 207 0.0 2.6 0.00 0.00 0.00 47 1000.7
20260504193304 81 213 0.0 5.2 0.00 0.00 0.00 46 1000.8
20260504191803 81 210 0.0 2.6 0.00 0.00 0.00 48 1000.9
20260504191303 80 206 0.0 2.6 0.00 0.00 0.00 48 1000.9
20260504190803 80 191 0.9 5.2 0.00 0.00 0.00 46 1000.9
20260504190303 80 191 0.0 6.1 0.00 0.00 0.00 50 1000.9
20260504184803 81 204 0.0 4.3 0.00 0.00 0.00 48 1001.2
20260504184303 81 213 0.0 2.6 0.00 0.00 0.00 50 1001.2
20260504183803 81 212 0.0 2.6 0.00 0.00 0.00 50 1001.2
20260504183304 80 188 0.0 7.0 0.00 0.00 0.00 54 1001.2
20260504181804 78 171 0.0 0.9 0.00 0.00 0.00 52 1001.3
20260504181304 78 164 0.0 0.0 0.00 0.00 0.00 56 1001.4
20260504180803 77 180 0.0 0.0 0.00 0.00 0.00 58 1001.5
20260504180303 76 161 0.0 0.9 0.00 0.00 0.00 58 1001.6
20260504174803 74 145 0.0 0.0 0.00 0.00 0.00 66 1001.9
20260504174303 73 153 0.0 0.9 0.00 0.00 0.00 67 1001.8
20260504173803 71 252 0.0 0.0 0.00 0.00 0.00 79 1001.9
20260504173303 68 208 0.0 1.7 0.00 0.00 0.00 84 1001.9
20260504171303 67 140 0.0 0.0 0.00 0.00 0.00 71 1001.9
20260504170803 67 198 0.0 0.0 0.00 0.00 0.00 74 1002.4
20260504170303 68 198 0.0 0.0 0.00 0.00 0.00 76 1002.4
20260504150803 66 173 0.0 2.6 0.00 0.00 0.00 69 1002.8
20260504150303 65 166 0.0 0.9 0.00 0.00 0.00 72 1002.9
20260504141302 60 155 0.0 0.0 0.00 0.00 0.00 80 1003.4
20260504140802 59 155 0.0 0.0 0.00 0.00 0.00 84 1003.4
20260504130302 59 158 0.0 0.0 0.00 0.00 0.00 79 1004.0
20260504120303 53 170 0.0 0.0 0.00 0.00 0.00 88 1004.6
20260504110302 54 170 0.0 0.0 0.00 0.00 0.00 85 1004.8
20260504081802 56 170 0.0 0.0 0.00 0.00 0.00 83 1005.4
20260504081303 56 170 0.0 0.0 0.00 0.00 0.00 83 1005.4
20260504080802 56 170 0.0 0.0 0.00 0.00 0.00 83 1005.5
20260504080303 56 170 0.0 0.0 0.00 0.00 0.00 84 1005.5
20260504070303 56 170 0.0 0.0 0.00 0.00 0.00 85 1005.6
20260504050302 58 170 0.0 0.0 0.00 0.00 0.00 79 1006.2
20260504044803 59 170 0.0 0.0 0.00 0.00 0.00 78 1006.5
20260504044303 59 170 0.0 0.0 0.00 0.00 0.00 77 1006.4
20260504043302 60 170 0.0 0.0 0.00 0.00 0.00 76 1006.5
20260504041303 61 170 0.0 0.0 0.00 0.00 0.00 75 1006.7
20260504040802 61 170 0.0 0.0 0.00 0.00 0.00 75 1006.9
20260504040302 61 170 0.0 0.0 0.00 0.00 0.00 76 1006.9
20260504034803 61 170 0.0 0.0 0.00 0.00 0.00 75 1007.0
20260504034303 61 170 0.0 0.0 0.00 0.00 0.00 75 1007.0
20260504033802 61 170 0.0 0.0 0.00 0.00 0.00 76 1006.9
20260504033302 61 170 0.0 0.0 0.00 0.00 0.00 74 1006.9
20260504031802 62 170 0.0 0.0 0.00 0.00 0.00 72 1006.9
20260504031302 62 170 0.0 0.0 0.00 0.00 0.00 70 1006.9
20260504030803 63 170 0.0 0.0 0.00 0.00 0.00 71 1007.0
20260504030303 63 170 0.0 0.0 0.00 0.00 0.00 69 1007.0
20260504024802 64 170 0.0 0.0 0.00 0.00 0.00 69 1006.9
20260504024302 64 170 0.0 0.0 0.00 0.00 0.00 69 1006.9
20260504023802 65 170 0.0 0.0 0.00 0.00 0.00 68 1006.9
20260504023302 65 170 0.0 0.0 0.00 0.00 0.00 68 1006.9
20260504021803 66 170 0.0 0.0 0.00 0.00 0.00 65 1006.8
20260504021303 66 170 0.0 0.0 0.00 0.00 0.00 65 1006.8
20260504020803 66 170 0.0 0.0 0.00 0.00 0.00 66 1006.6
20260504020303 66 170 0.0 0.0 0.00 0.00 0.00 63 1006.5
20260504014802 67 170 0.0 0.0 0.00 0.00 0.00 61 1006.6
20260504014303 67 170 0.0 0.0 0.00 0.00 0.00 61 1006.6
20260504013803 67 170 0.0 0.0 0.00 0.00 0.00 60 1006.6
20260504013303 68 170 0.0 0.0 0.00 0.00 0.00 60 1006.5